User: anonymous   Login
Location: Mascot Post Office (historical)
(40.2645°N, 99.5462°W)
Time: 13:17:19
(UTC+00:00)
Language:

Cosmos 1869 Rocket - Orbit

View from above orbital plane
View from above orbital plane
View from above satellite
View from above satellite

Ground track
Ground track

The orbit data is extracted from the following two-line orbital elements,

1 18215U 87062B   20263.20598392  .00000039  00000-0  17531-5 0  9995
2 18215  82.5101 248.1737 0020998 160.0928 211.0222 14.83227469792365
Epoch (UTC): 19 September 2020 04:56:37
Eccentricity: 0.0020998
inclination: 82.5101°
perigee height: 604 km
apogee height: 634 km
right ascension of ascending node: 248.1737°
argument of perigee: 160.0928°
revolutions per day: 14.83227469
mean anomaly at epoch: 211.0222°
orbit number at epoch: 79236

The dashed part of the orbit path shows where the satellite is in the earth's shadow,  

DLR